EW8360 Weather Reports


time (UTC)temp
F
wind
direction
speed
knots
gust
knots
rain 1hr
in
rain 24hr
in
rain mn
in
humidity
%
barometer
mb
20260906172515 77 293 2.6 7.8 0.00 0.00 0.00 62 1011.6
20260906172015 77 298 2.6 7.8 0.00 0.00 0.00 61 1011.6
20260906171741 77 353 5.2 7.0 0.00 0.00 0.00 58 1011.5
20260906171015 76 310 3.5 7.0 0.00 0.00 0.00 58 1011.5
20260906170514 76 359 7.0 7.0 0.00 0.00 0.00 58 1011.5
20260906170016 76 355 6.1 10.4 0.00 0.00 0.00 59 1011.4
20260906165515 76 16 3.5 11.3 0.00 0.00 0.00 61 1011.4
20260906165014 75 355 10.4 11.3 0.00 0.00 0.00 61 1011.4
20260906164514 75 351 7.0 10.4 0.00 0.00 0.00 63 1011.3
20260906164232 75 353 7.8 10.4 0.00 0.00 0.00 64 1011.3
20260906163731 74 11 3.5 11.3 0.00 0.00 0.00 66 1011.2
20260906163014 74 4 7.8 12.2 0.00 0.00 0.00 67 1011.1
20260906162733 74 351 10.4 12.2 0.00 0.00 0.00 68 1011.3
20260906162015 74 352 8.7 11.3 0.00 0.00 0.00 69 1011.3
20260906161515 74 0 8.7 11.3 0.00 0.00 0.00 70 1011.3
20260906161013 74 8 7.8 12.2 0.00 0.00 0.00 71 1011.2
20260906160736 74 42 6.1 12.2 0.00 0.00 0.00 71 1011.2
20260906160014 74 18 9.6 11.3 0.00 0.00 0.00 72 1011.2
20260906155515 74 356 7.0 11.3 0.00 0.00 0.00 72 1011.2
20260906155012 73 21 3.5 12.2 0.00 0.00 0.00 72 1011.2
20260906154512 73 350 8.7 12.2 0.00 0.00 0.00 71 1011.2
20260906154014 73 6 4.3 11.3 0.00 0.00 0.00 72 1011.2
20260906153738 73 351 8.7 12.2 0.00 0.00 0.00 72 1011.1
20260906153012 73 350 10.4 12.2 0.00 0.00 0.00 72 1011.3
20260906152736 73 357 7.8 13.0 0.00 0.00 0.00 73 1011.2
20260906152011 73 348 8.7 13.0 0.00 0.00 0.00 74 1011.3
20260906151513 73 334 5.2 11.3 0.00 0.00 0.00 75 1011.4
20260906151011 73 3 5.2 11.3 0.00 0.00 0.00 77 1011.3
20260906150512 73 354 7.8 10.4 0.00 0.00 0.00 77 1011.3
20260906150011 73 0 7.8 10.4 0.00 0.00 0.00 77 1011.3
20260906145513 74 10 3.5 7.0 0.00 0.00 0.00 77 1011.1
20260906145012 74 340 1.7 7.0 0.00 0.00 0.00 75 1011.2
20260906144512 74 339 3.5 5.2 0.00 0.00 0.00 74 1011.1
20260906144011 74 315 3.5 4.3 0.00 0.00 0.00 73 1011.1
20260906143511 74 312 2.6 4.3 0.00 0.00 0.00 71 1011.1
20260906143011 74 285 2.6 4.3 0.00 0.00 0.00 69 1011.0
20260906142511 74 293 2.6 4.3 0.00 0.00 0.00 69 1010.8
20260906142011 74 265 1.7 1.7 0.00 0.00 0.00 69 1010.8
20260906141512 74 265 0.9 1.7 0.00 0.00 0.00 69 1010.7
20260906141011 74 283 1.7 2.6 0.00 0.00 0.00 69 1010.5
20260906140510 74 309 1.7 4.3 0.00 0.00 0.00 68 1010.6
20260906140010 73 309 2.6 4.3 0.00 0.00 0.00 69 1010.6
20260906135736 73 281 3.5 4.3 0.00 0.00 0.00 70 1010.5
20260906135011 73 268 1.7 2.6 0.00 0.00 0.00 71 1010.3
20260906134510 73 265 1.7 4.3 0.00 0.00 0.00 71 1010.2
20260906134010 73 284 2.6 4.3 0.00 0.00 0.00 71 1010.1
20260906133511 73 268 1.7 2.6 0.00 0.00 0.00 73 1010.1
20260906133011 73 254 1.7 2.6 0.00 0.00 0.00 74 1010.1
20260906132509 73 255 0.9 2.6 0.00 0.00 0.00 74 1010.1
20260906132009 73 262 1.7 2.6 0.00 0.00 0.00 74 1009.9
20260906131511 73 263 0.0 1.7 0.00 0.00 0.00 72 1009.9
20260906131232 73 262 0.9 2.6 0.00 0.00 0.00 73 1009.9
20260906130731 73 255 1.7 2.6 0.00 0.00 0.00 73 1010.0
20260906125735 74 263 0.9 1.7 0.00 0.00 0.00 72 1009.9
20260906125010 74 273 0.9 1.7 0.00 0.00 0.00 73 1009.9
20260906124507 74 252 0.0 0.9 0.00 0.00 0.00 74 1009.9
20260906124009 74 248 0.0 4.3 0.00 0.00 0.00 74 1009.9
20260906123510 74 268 0.9 5.2 0.00 0.00 0.00 73 1009.8
20260906123010 74 316 2.6 5.2 0.00 0.00 0.00 72 1009.8
20260906122508 74 338 1.7 4.3 0.00 0.00 0.00 72 1009.8
20260906122009 74 346 1.7 4.3 0.00 0.00 0.00 73 1009.8
20260906121510 74 351 2.6 4.3 0.00 0.00 0.00 72 1009.8
20260906121009 74 341 3.5 6.1 0.00 0.00 0.00 72 1009.9
20260906120508 74 354 1.7 7.0 0.00 0.00 0.00 71 1009.9
20260906120009 74 16 2.6 7.0 0.00 0.00 0.00 70 1009.8
20260906115507 74 5 1.7 5.2 0.00 0.00 0.00 69 1009.9
20260906115009 74 357 1.7 5.2 0.00 0.00 0.00 69 1010.0
20260906114510 74 42 1.7 7.8 0.00 0.00 0.00 69 1010.0
20260906114007 74 28 3.5 8.7 0.00 0.00 0.00 68 1009.8
20260906113728 74 35 3.5 8.7 0.00 0.00 0.00 68 1009.8
20260906113010 74 30 3.5 6.1 0.00 0.00 0.00 68 1009.9
20260906112508 74 36 3.5 5.2 0.00 0.00 0.00 67 1010.0
20260906112008 74 26 2.6 2.6 0.00 0.00 0.00 68 1009.9
20260906111730 74 9 1.7 2.6 0.00 0.00 0.00 70 1010.0
20260906111008 74 4 0.9 2.6 0.00 0.00 0.00 70 1010.1
20260906110509 74 353 0.9 2.6 0.00 0.00 0.00 71 1010.0
20260906110008 74 6 0.9 2.6 0.00 0.00 0.00 70 1010.1
20260906105506 74 343 0.9 4.3 0.00 0.00 0.00 72 1010.1
20260906104507 74 339 2.6 5.2 0.00 0.00 0.00 71 1010.2
20260906104225 74 8 1.7 4.3 0.00 0.00 0.00 70 1010.2
20260906103506 74 14 0.9 6.1 0.00 0.00 0.00 70 1010.2
20260906103008 74 18 1.7 6.1 0.00 0.00 0.00 70 1010.0
20260906102508 74 12 2.6 4.3 0.00 0.00 0.00 68 1010.0
20260906102006 74 53 1.7 6.1 0.00 0.00 0.00 68 1010.1
20260906101505 74 20 0.9 6.1 0.00 0.00 0.00 69 1010.2
20260906101007 74 14 1.7 4.3 0.00 0.00 0.00 69 1010.3
20260906100505 74 10 1.7 2.6 0.00 0.00 0.00 70 1010.1
20260906095523 74 328 0.9 6.1 0.00 0.00 0.00 71 1010.1
20260906095025 74 339 3.5 6.1 0.00 0.00 0.00 70 1010.1
20260906094524 74 343 4.3 7.0 0.00 0.00 0.00 70 1010.1
20260906094023 74 351 5.2 10.4 0.00 0.00 0.00 70 1010.2
20260906093523 74 356 4.3 13.0 0.00 0.00 0.00 70 1010.2
20260906093024 74 345 9.6 13.0 0.00 0.00 0.00 69 1010.2
20260906092524 74 25 7.0 12.2 0.00 0.00 0.00 68 1010.2
20260906092023 74 17 8.7 10.4 0.00 0.00 0.00 68 1010.2
20260906091523 74 357 7.8 11.3 0.00 0.00 0.00 66 1010.2
20260906091024 74 348 7.0 11.3 0.00 0.00 0.00 66 1010.2
20260906090523 74 11 6.1 7.8 0.00 0.00 0.00 64 1010.3
20260906090022 74 341 5.2 10.4 0.00 0.00 0.00 68 1010.3
20260906085521 74 345 6.1 10.4 0.00 0.00 0.00 68 1010.3
20260906085020 74 306 7.8 11.3 0.00 0.00 0.00 67 1010.5
20260906084523 74 6 7.8 13.0 0.00 0.00 0.00 69 1010.4
20260906084021 74 354 7.0 13.0 0.00 0.00 0.00 69 1010.4
20260906083521 74 341 5.2 13.0 0.00 0.00 0.00 73 1010.4
20260906083023 74 5 8.7 12.2 0.00 0.00 0.00 75 1010.6
20260906082522 74 347 6.1 11.3 0.00 0.00 0.00 75 1010.5
20260906082021 74 356 8.7 10.4 0.00 0.00 0.00 75 1010.6
20260906081521 74 344 7.0 7.8 0.00 0.00 0.00 75 1010.7
20260906081022 74 354 5.2 7.0 0.00 0.00 0.00 74 1010.7
20260906080518 74 0 6.1 7.0 0.00 0.00 0.00 73 1010.8
20260906075520 74 1 5.2 7.8 0.00 0.00 0.00 71 1010.8
20260906075020 74 296 7.0 7.8 0.00 0.00 0.00 70 1010.8
20260906074521 74 319 4.3 6.1 0.00 0.00 0.00 70 1010.8
20260906074021 75 308 5.2 6.1 0.00 0.00 0.00 70 1010.9
20260906073521 75 287 4.3 6.1 0.00 0.00 0.00 70 1010.8
20260906073020 75 319 4.3 6.1 0.00 0.00 0.00 71 1010.9
20260906072520 75 330 4.3 6.1 0.00 0.00 0.00 70 1010.9
20260906072020 75 292 2.6 5.2 0.00 0.00 0.00 70 1010.9
20260906071520 75 339 2.6 7.0 0.00 0.00 0.00 69 1010.9
20260906071020 74 359 3.5 7.0 0.00 0.00 0.00 68 1010.8
20260906070520 74 4 1.7 7.0 0.00 0.00 0.00 68 1010.8
20260906070021 74 6 0.9 6.1 0.00 0.00 0.00 68 1010.8
20260906065746 74 305 3.5 5.2 0.00 0.00 0.00 69 1010.8
20260906065019 74 336 2.6 5.2 0.00 0.00 0.00 71 1010.7
20260906064738 74 49 2.6 4.3 0.00 0.00 0.00 74 1010.7
20260906064020 74 313 2.6 4.3 0.00 0.00 0.00 74 1010.8
20260906063519 74 276 1.7 5.2 0.00 0.00 0.00 77 1010.7
20260906063019 74 296 1.7 5.2 0.00 0.00 0.00 74 1010.8
20260906062520 75 332 2.6 4.3 0.00 0.00 0.00 72 1010.8
20260906062019 75 257 0.9 4.3 0.00 0.00 0.00 72 1010.9
20260906061518 75 252 3.5 4.3 0.00 0.00 0.00 72 1010.9
20260906061018 75 235 1.7 2.6 0.00 0.00 0.00 70 1010.9
20260906060519 76 256 1.7 2.6 0.00 0.00 0.00 67 1010.8
20260906060020 76 232 1.7 2.6 0.00 0.00 0.00 63 1010.7
20260906055518 76 263 1.7 2.6 0.00 0.00 0.00 62 1010.8
20260906055017 76 223 0.9 2.6 0.00 0.00 0.00 60 1010.8
20260906054519 76 275 0.9 2.6 0.00 0.00 0.00 58 1010.8
20260906054020 76 265 1.7 2.6 0.00 0.00 0.00 54 1010.8
20260906053518 77 267 0.9 2.6 0.00 0.00 0.00 52 1010.8
20260906053019 77 269 0.9 2.6 0.00 0.00 0.00 52 1010.9
20260906052520 77 249 0.0 0.0 0.00 0.00 0.00 51 1010.9
20260906052019 78 247 0.0 0.9 0.00 0.00 0.00 49 1010.9
20260906051518 78 272 0.0 1.7 0.00 0.00 0.00 48 1010.8
20260906051017 78 259 0.9 2.6 0.00 0.00 0.00 47 1011.0
20260906050518 78 246 0.9 4.3 0.00 0.00 0.00 47 1011.0
20260906050018 78 323 2.6 4.3 0.00 0.00 0.00 44 1010.9
20260906045518 78 338 0.9 4.3 0.00 0.00 0.00 44 1010.9
20260906045017 78 277 0.9 5.2 0.00 0.00 0.00 44 1010.9
20260906044517 78 13 0.9 5.2 0.00 0.00 0.00 44 1010.9
20260906044018 78 1 2.6 7.0 0.00 0.00 0.00 44 1010.9
20260906043737 78 13 2.6 7.0 0.00 0.00 0.00 44 1010.8
20260906043017 78 23 2.6 7.0 0.00 0.00 0.00 45 1010.8
20260906042516 78 54 1.7 6.1 0.00 0.00 0.00 44 1010.9
20260906042019 78 23 2.6 7.8 0.00 0.00 0.00 45 1010.8
20260906041518 78 7 2.6 7.8 0.00 0.00 0.00 44 1010.8
20260906041235 78 16 5.2 7.8 0.00 0.00 0.00 44 1010.8
20260906040517 78 17 2.6 7.8 0.00 0.00 0.00 45 1010.7
20260906040018 78 333 4.3 7.8 0.00 0.00 0.00 45 1010.7
20260906035518 78 351 2.6 8.7 0.00 0.00 0.00 44 1010.8
20260906035016 77 2 7.8 8.7 0.00 0.00 0.00 44 1010.7
20260906034017 77 347 5.2 10.4 0.00 0.00 0.00 46 1010.7
20260906033517 77 354 7.0 10.4 0.00 0.00 0.00 47 1010.6
20260906033017 77 353 7.8 11.3 0.00 0.00 0.00 48 1010.5
20260906032605 77 6 7.8 13.9 0.00 0.00 0.00 50 1010.5
20260906032310 77 350 8.7 13.9 0.00 0.00 0.00 52 1010.4
20260906031537 77 353 13.0 13.9 0.00 0.00 0.00 49 1010.4
20260906030536 78 351 8.7 13.9 0.00 0.00 0.00 45 1010.4
20260906030046 78 20 11.3 13.9 0.00 0.00 0.00 42 1010.3
20260906025533 78 359 11.3 12.2 0.00 0.00 0.00 41 1010.3
20260906025313 78 343 7.8 10.4 0.00 0.00 0.00 43 1010.3
20260906024511 78 342 7.0 8.7 0.00 0.00 0.00 45 1010.2
20260906024014 78 353 7.0 8.7 0.00 0.00 0.00 44 1010.1
20260906023516 78 7 4.3 10.4 0.00 0.00 0.00 43 1010.2
20260906023015 78 15 4.3 10.4 0.00 0.00 0.00 43 1010.2
20260906022515 79 6 8.7 10.4 0.00 0.00 0.00 43 1010.2
20260906022014 79 351 7.0 10.4 0.00 0.00 0.00 46 1010.1
20260906021515 79 312 5.2 7.8 0.00 0.00 0.00 47 1010.2
20260906021014 79 304 6.1 13.0 0.00 0.00 0.00 46 1010.2
20260906020513 79 344 5.2 13.0 0.00 0.00 0.00 45 1010.2
20260906020013 78 21 10.4 12.2 0.00 0.00 0.00 44 1010.1
20260906015514 78 351 5.2 8.7 0.00 0.00 0.00 45 1010.1
20260906015014 78 334 6.1 8.7 0.00 0.00 0.00 45 1010.1
20260906014540 78 327 5.2 6.1 0.00 0.00 0.00 53 1010.1
20260906014040 78 328 4.3 6.1 0.00 0.00 0.00 66 1010.2
20260906013754 78 302 3.5 5.2 0.00 0.00 0.00 66 1010.2
20260906013253 79 291 3.5 5.2 0.00 0.00 0.00 67 1010.2
20260906012817 79 291 3.5 5.2 0.00 0.00 0.00 67 1010.2
20260906012030 80 303 3.5 6.1 0.00 0.00 0.00 64 1010.4
20260906011536 80 291 2.6 6.1 0.00 0.00 0.00 68 1010.3
20260906011052 80 296 3.5 6.1 0.00 0.00 0.00 67 1010.3
20260906010533 81 289 4.3 6.1 0.00 0.00 0.00 66 1010.3
20260906010031 81 268 1.7 5.2 0.00 0.00 0.00 63 1010.3
20260906005524 81 284 1.7 4.3 0.00 0.00 0.00 62 1010.3
20260906005028 82 253 0.0 4.3 0.00 0.00 0.00 63 1010.2
20260906004534 82 256 1.7 5.2 0.00 0.00 0.00 61 1010.1
20260906004039 82 296 1.7 5.2 0.00 0.00 0.00 59 1010.2
20260906003542 82 317 1.7 4.3 0.00 0.00 0.00 58 1010.2
20260906003045 82 332 2.6 6.1 0.00 0.00 0.00 57 1010.2
20260906002524 82 251 2.6 6.1 0.00 0.00 0.00 56 1010.2
20260906002036 82 266 2.6 7.0 0.00 0.00 0.00 57 1010.2
20260906001539 81 274 2.6 7.0 0.00 0.00 0.00 58 1010.2
20260906001053 81 283 1.7 7.0 0.00 0.00 0.00 57 1010.3
20260906000534 82 301 3.5 7.0 0.00 0.00 0.00 56 1010.3
20260906000037 82 314 1.7 8.7 0.00 0.00 0.00 53 1010.2
20260905235544 82 354 0.9 8.7 0.00 0.00 0.00 54 1010.3
20260905235101 82 231 1.7 7.0 0.00 0.00 0.00 52 1010.3
20260905234248 83 291 3.5 5.2 0.00 0.00 0.00 52 1010.2
20260905233539 83 262 2.6 5.2 0.00 0.00 0.00 48 1010.3
20260905233042 83 296 2.6 7.0 0.00 0.00 0.00 49 1010.3
20260905232558 84 306 2.6 7.0 0.00 0.00 0.00 49 1010.4
20260905232005 84 258 3.5 8.7 0.00 0.00 0.00 48 1010.3
20260905231546 84 256 4.3 8.7 0.00 0.00 0.00 51 1010.3
20260905231048 83 269 4.3 7.8 0.00 0.00 0.00 51 1010.2
20260905230542 83 269 2.6 7.8 0.00 0.00 0.00 50 1010.2
20260905230041 83 281 2.6 6.1 0.00 0.00 0.00 46 1010.2
20260905225537 83 271 0.9 6.1 0.00 0.00 0.00 49 1010.2
20260905225307 83 270 1.7 6.1 0.00 0.00 0.00 49 1010.3
20260905224600 83 237 1.7 6.1 0.00 0.00 0.00 54 1010.4
20260905224052 83 258 0.9 7.8 0.00 0.00 0.00 54 1010.3
20260905223747 84 255 2.6 7.8 0.00 0.00 0.00 50 1010.4
20260905223052 84 352 1.7 6.1 0.00 0.00 0.00 53 1010.5
20260905222813 84 281 3.5 7.8 0.00 0.00 0.00 47 1010.5
20260905222039 84 285 3.5 7.8 0.00 0.00 0.00 46 1010.4
20260905221811 84 265 3.5 7.0 0.00 0.00 0.00 41 1010.5
20260905221006 84 297 0.9 7.0 0.00 0.00 0.00 45 1010.5
20260905220532 84 270 4.3 7.0 0.00 0.00 0.00 49 1010.7
20260905220033 84 211 2.6 7.0 0.00 0.00 0.00 46 1010.6
20260905215540 84 229 1.7 7.0 0.00 0.00 0.00 49 1010.8
20260905215310 84 258 0.0 7.0 0.00 0.00 0.00 48 1010.7
20260905214803 84 226 3.5 7.8 0.00 0.00 0.00 43 1010.8
20260905214048 84 268 2.6 7.8 0.00 0.00 0.00 46 1010.9
20260905213551 84 276 2.6 7.0 0.00 0.00 0.00 44 1010.9
20260905213044 84 259 2.6 7.0 0.00 0.00 0.00 45 1011.0
20260905212524 83 282 2.6 7.0 0.00 0.00 0.00 48 1011.1
20260905212314 83 252 3.5 7.8 0.00 0.00 0.00 49 1011.0
20260905211808 83 251 2.6 7.8 0.00 0.00 0.00 50 1011.1
20260905211058 83 330 2.6 7.0 0.00 0.00 0.00 48 1011.1
20260905210532 83 306 3.5 7.8 0.00 0.00 0.00 48 1011.1
20260905210028 84 273 3.5 7.8 0.00 0.00 0.00 48 1011.2
20260905205814 84 335 2.6 7.8 0.00 0.00 0.00 50 1011.1
20260905205045 85 330 2.6 7.8 0.00 0.00 0.00 51 1011.2
20260905204616 85 242 1.7 11.3 0.00 0.00 0.00 52 1011.1
20260905204052 85 328 4.3 11.3 0.00 0.00 0.00 53 1011.2
20260905203554 85 56 2.6 10.4 0.00 0.00 0.00 49 1011.2
20260905203110 85 259 1.7 10.4 0.00 0.00 0.00 46 1011.3
20260905202548 85 263 2.6 7.0 0.00 0.00 0.00 45 1011.3
20260905202056 85 293 2.6 7.0 0.00 0.00 0.00 48 1011.4
20260905201546 85 283 2.6 6.1 0.00 0.00 0.00 46 1011.4
20260905201329 85 274 2.6 7.0 0.00 0.00 0.00 47 1011.4
20260905200550 85 318 2.6 7.0 0.00 0.00 0.00 49 1011.5
20260905200110 85 351 2.6 6.1 0.00 0.00 0.00 48 1011.4
20260905195541 85 302 1.7 6.1 0.00 0.00 0.00 47 1011.5
20260905195045 85 268 1.7 6.1 0.00 0.00 0.00 47 1011.5
20260905194602 85 319 1.7 6.1 0.00 0.00 0.00 44 1011.5
20260905194313 84 247 1.7 7.0 0.00 0.00 0.00 46 1011.6
20260905193600 84 286 2.6 7.0 0.00 0.00 0.00 46 1011.7
20260905193052 84 287 1.7 6.1 0.00 0.00 0.00 47 1011.7
20260905192555 83 339 2.6 6.1 0.00 0.00 0.00 47 1011.8
20260905192052 83 350 0.9 6.1 0.00 0.00 0.00 48 1011.9
20260905191553 83 292 1.7 6.1 0.00 0.00 0.00 49 1011.9
20260905191048 83 280 1.7 8.7 0.00 0.00 0.00 49 1011.9
20260905190544 83 347 4.3 8.7 0.00 0.00 0.00 52 1011.9
20260905190043 83 284 1.7 7.0 0.00 0.00 0.00 52 1012.0
20260905185534 83 285 3.5 7.0 0.00 0.00 0.00 50 1012.2
20260905185051 83 291 3.5 6.1 0.00 0.00 0.00 51 1012.3
20260905184540 83 262 2.6 6.1 0.00 0.00 0.00 49 1012.3
20260905184312 83 284 3.5 6.1 0.00 0.00 0.00 49 1012.4
20260905183047 83 306 1.7 6.1 0.00 0.00 0.00 49 1012.3
20260905182544 83 294 3.5 6.1 0.00 0.00 0.00 51 1012.4
20260905182246 82 306 3.5 7.8 0.00 0.00 0.00 53 1012.4
20260905181534 82 268 1.7 7.8 0.00 0.00 0.00 54 1012.5
20260905181301 81 307 1.7 5.2 0.00 0.00 0.00 54 1012.5
20260905180530 81 350 3.5 5.2 0.00 0.00 0.00 53 1012.5
20260905180018 80 302 1.7 5.2 0.00 0.00 0.00 54 1012.5
20260905175530 80 247 1.7 4.3 0.00 0.00 0.00 55 1012.5
20260905175022 79 237 0.0 4.3 0.00 0.00 0.00 57 1012.5
20260905174504 79 271 1.7 4.3 0.00 0.00 0.00 59 1012.4
20260905174004 79 337 1.7 4.3 0.00 0.00 0.00 60 1012.4
20260905173504 78 296 1.7 4.3 0.00 0.00 0.00 59 1012.4